When you browse on this site, cookies collect data to enhance your experience and personalize the content and advertising you see.
Visit our Privacy Policy to learn more. By continuing to use the site, you agree to this use of cookies and data.
  • In Hungary
  • List of Countries
  • For 7 days
  • Water Temperature
  • Satellite Maps
  • Weather Map
  • News
  • Weather Widgets
  • user-avatar
    Login

    Hourly Weather Salima

    Today, 18 January, Friday

    Time Temperature Precipitation Wind Pressure Humidity
    00:00 +26°C° 0.7 mm 2 mps 715 mmHg 81%
    01:00 +26°C° 0.7 mm 2 mps 715 mmHg 81%
    02:00 +26°C° 0 mm 2 mps 715 mmHg 79%
    03:00 +25°C° 0.1 mm 2 mps 714 mmHg 79%
    04:00 +25°C° 0.1 mm 2 mps 714 mmHg 79%
    05:00 +25°C° 0.1 mm 2 mps 714 mmHg 79%
    06:00 +26°C° 0 mm 2 mps 715 mmHg 75%
    07:00 +28°C° 0 mm 2 mps 715 mmHg 70%
    08:00 +29°C° 0 mm 2 mps 716 mmHg 66%
    09:00 +30°C° 0.6 mm 2 mps 715 mmHg 61%
    10:00 +33°C° 0.6 mm 3 mps 715 mmHg 57%
    11:00 +34°C° 0.6 mm 3 mps 715 mmHg 52%
    12:00 +34°C° 0 mm 4 mps 714 mmHg 53%
    13:00 +34°C° 0 mm 4 mps 714 mmHg 53%
    14:00 +34°C° 0 mm 5 mps 713 mmHg 54%
    15:00 +33°C° 0.1 mm 4 mps 713 mmHg 58%
    16:00 +32°C° 0.1 mm 4 mps 712 mmHg 63%
    17:00 +32°C° 0.1 mm 4 mps 712 mmHg 67%
    18:00 +29°C° 0.8 mm 4 mps 713 mmHg 73%
    19:00 +28°C° 0.8 mm 3 mps 713 mmHg 80%
    20:00 +27°C° 0.8 mm 3 mps 713 mmHg 86%
    21:00 +26°C° 1.4 mm 3 mps 714 mmHg 87%
    22:00 +26°C° 1.4 mm 3 mps 714 mmHg 88%
    23:00 +26°C° 1.4 mm 3 mps 714 mmHg 89%

    Tomorrow, 19 January, Saturday

    Time Temperature Precipitation Wind Pressure Humidity
    00:00 +26°C° 0.3 mm 2 mps 714 mmHg 88%
    01:00 +26°C° 0.3 mm 2 mps 714 mmHg 88%
    02:00 +25°C° 0.3 mm 2 mps 713 mmHg 87%
    03:00 +25°C° 0.6 mm 2 mps 714 mmHg 87%
    04:00 +25°C° 0.6 mm 2 mps 714 mmHg 87%
    05:00 +25°C° 0.6 mm 2 mps 714 mmHg 87%
    06:00 +26°C° 0.8 mm 2 mps 714 mmHg 83%
    07:00 +27°C° 0.8 mm 3 mps 714 mmHg 79%
    08:00 +29°C° 0.8 mm 3 mps 715 mmHg 75%
    09:00 +29°C° 1.7 mm 3 mps 714 mmHg 74%
    10:00 +30°C° 1.7 mm 4 mps 714 mmHg 74%
    11:00 +30°C° 1.7 mm 4 mps 714 mmHg 74%
    12:00 +32°C° 1.8 mm 4 mps 714 mmHg 74%
    13:00 +32°C° 1.8 mm 4 mps 713 mmHg 75%
    14:00 +31°C° 1.8 mm 3 mps 713 mmHg 75%
    15:00 +30°C° 1.3 mm 3 mps 713 mmHg 78%
    16:00 +30°C° 1.3 mm 2 mps 712 mmHg 81%
    17:00 +29°C° 1.3 mm 2 mps 712 mmHg 84%
    18:00 +28°C° 2.5 mm 2 mps 713 mmHg 86%
    19:00 +27°C° 2.5 mm 2 mps 714 mmHg 88%
    20:00 +26°C° 2.5 mm 3 mps 714 mmHg 90%
    21:00 +26°C° 1.1 mm 2 mps 714 mmHg 91%
    22:00 +25°C° 1.1 mm 2 mps 715 mmHg 91%
    23:00 +25°C° 1.1 mm 1 mps 715 mmHg 92%

    Day after tomorrow, 20 January, Sunday

    Time Temperature Precipitation Wind Pressure Humidity
    00:00 +25°C° 0.8 mm 1 mps 714 mmHg 92%
    01:00 +25°C° 0.8 mm 1 mps 714 mmHg 93%
    02:00 +25°C° 0.8 mm 1 mps 713 mmHg 93%
    03:00 +25°C° 0.4 mm 1 mps 714 mmHg 93%
    04:00 +25°C° 0.4 mm 1 mps 714 mmHg 92%
    05:00 +25°C° 0.4 mm 1 mps 714 mmHg 92%
    06:00 +25°C° 1.9 mm 1 mps 715 mmHg 91%
    07:00 +25°C° 1.9 mm 1 mps 715 mmHg 91%
    08:00 +26°C° 1.9 mm 1 mps 716 mmHg 90%
    09:00 +26°C° 1.3 mm 1 mps 716 mmHg 89%
    10:00 +26°C° 1.3 mm 1 mps 716 mmHg 88%
    11:00 +26°C° 1.3 mm 1 mps 716 mmHg 87%
    12:00 +27°C° 0.8 mm 1 mps 715 mmHg 85%
    13:00 +28°C° 0.8 mm 1 mps 715 mmHg 82%
    14:00 +29°C° 0.8 mm 1 mps 714 mmHg 80%
    15:00 +28°C° 1.6 mm 1 mps 714 mmHg 83%
    16:00 +27°C° 1.6 mm 1 mps 714 mmHg 87%
    17:00 +26°C° 1.6 mm 2 mps 714 mmHg 90%
    18:00 +26°C° 1.5 mm 1 mps 715 mmHg 91%
    19:00 +25°C° 1.5 mm 1 mps 715 mmHg 92%
    20:00 +25°C° 1.5 mm 1 mps 716 mmHg 92%
    21:00 +25°C° 1.4 mm 1 mps 716 mmHg 93%
    22:00 +24°C° 1.4 mm 1 mps 716 mmHg 93%
    23:00 +24°C° 1.4 mm 1 mps 716 mmHg 94%

    21 January, Monday

    Time Temperature Precipitation Wind Pressure Humidity
    00:00 +24°C° 1.3 mm 1 mps 716 mmHg 93%
    01:00 +24°C° 1.3 mm 1 mps 715 mmHg 93%
    02:00 +24°C° 1.3 mm 1 mps 715 mmHg 93%
    03:00 +24°C° 1 mm 1 mps 715 mmHg 93%
    04:00 +24°C° 1 mm 1 mps 715 mmHg 93%
    05:00 +24°C° 1 mm 1 mps 715 mmHg 93%
    06:00 +24°C° 1.2 mm 1 mps 715 mmHg 92%
    07:00 +25°C° 1.2 mm 1 mps 716 mmHg 90%
    08:00 +25°C° 1.2 mm 1 mps 716 mmHg 89%
    09:00 +26°C° 1.3 mm 2 mps 716 mmHg 86%
    10:00 +27°C° 1.3 mm 2 mps 716 mmHg 83%
    11:00 +27°C° 1.3 mm 2 mps 716 mmHg 81%
    12:00 +27°C° 1.7 mm 2 mps 715 mmHg 85%
    13:00 +26°C° 1.7 mm 2 mps 714 mmHg 89%
    14:00 +25°C° 1.7 mm 2 mps 714 mmHg 93%
    15:00 +25°C° 2.1 mm 2 mps 714 mmHg 94%
    16:00 +25°C° 2.1 mm 2 mps 714 mmHg 95%
    17:00 +24°C° 2.1 mm 1 mps 713 mmHg 97%
    18:00 +24°C° 0.2 mm 1 mps 714 mmHg 96%
    19:00 +24°C° 0.2 mm 1 mps 715 mmHg 96%
    20:00 +24°C° 0.2 mm 1 mps 715 mmHg 96%
    21:00 +24°C° 1 mm 1 mps 715 mmHg 95%
    22:00 +24°C° 1 mm 1 mps 716 mmHg 95%
    23:00 +24°C° 1 mm 1 mps 716 mmHg 94%

    22 January, Tuesday

    Time Temperature Precipitation Wind Pressure Humidity
    00:00 +24°C° 0.9 mm 1 mps 715 mmHg 94%
    01:00 +24°C° 0.9 mm 1 mps 715 mmHg 94%
    02:00 +23°C° 0.9 mm 1 mps 714 mmHg 94%
    03:00 +23°C° 0.9 mm 1 mps 714 mmHg 93%
    04:00 +23°C° 0.9 mm 2 mps 714 mmHg 93%
    05:00 +23°C° 0.9 mm 2 mps 714 mmHg 93%
    06:00 +24°C° 0.3 mm 2 mps 715 mmHg 89%
    07:00 +25°C° 0.3 mm 2 mps 715 mmHg 86%
    08:00 +27°C° 0.3 mm 3 mps 716 mmHg 82%
    09:00 +28°C° 0.5 mm 3 mps 715 mmHg 77%
    10:00 +30°C° 0.5 mm 3 mps 715 mmHg 72%
    11:00 +31°C° 0.5 mm 3 mps 715 mmHg 66%
    12:00 +33°C° 0.2 mm 3 mps 714 mmHg 63%
    13:00 +33°C° 0.2 mm 3 mps 713 mmHg 59%
    14:00 +34°C° 0.2 mm 3 mps 712 mmHg 56%
    15:00 +33°C° 0.4 mm 3 mps 712 mmHg 64%
    16:00 +31°C° 0.4 mm 3 mps 712 mmHg 71%
    17:00 +30°C° 0.4 mm 2 mps 712 mmHg 79%
    18:00 +28°C° 0.8 mm 2 mps 713 mmHg 83%
    19:00 +27°C° 0.8 mm 2 mps 713 mmHg 86%
    20:00 +26°C° 0.8 mm 2 mps 714 mmHg 90%
    21:00 +26°C° 0.9 mm 2 mps 714 mmHg 90%
    22:00 +25°C° 0.9 mm 2 mps 714 mmHg 90%
    23:00 +25°C° 0.9 mm 2 mps 714 mmHg 90%

    23 January, Wednesday

    Time Temperature Precipitation Wind Pressure Humidity
    00:00 +25°C° 0.9 mm 2 mps 714 mmHg 90%
    01:00 +25°C° 0.9 mm 2 mps 713 mmHg 90%
    02:00 +25°C° 0.9 mm 2 mps 713 mmHg 90%
    03:00 +24°C° 0.5 mm 2 mps 713 mmHg 90%
    04:00 +24°C° 0.5 mm 2 mps 713 mmHg 89%
    05:00 +24°C° 0.5 mm 2 mps 714 mmHg 89%
    06:00 +25°C° 0.6 mm 2 mps 714 mmHg 85%
    07:00 +27°C° 0.6 mm 2 mps 714 mmHg 82%
    08:00 +28°C° 0.6 mm 2 mps 715 mmHg 78%
    09:00 +30°C° 0.9 mm 2 mps 714 mmHg 72%
    10:00 +31°C° 0.9 mm 2 mps 714 mmHg 66%
    11:00 +34°C° 0.9 mm 3 mps 714 mmHg 59%
    12:00 +34°C° 0.1 mm 3 mps 713 mmHg 59%
    13:00 +34°C° 0.1 mm 3 mps 712 mmHg 59%
    14:00 +34°C° 0.1 mm 4 mps 712 mmHg 58%
    15:00 +33°C° 0.8 mm 4 mps 712 mmHg 67%
    16:00 +30°C° 0.8 mm 3 mps 712 mmHg 75%
    17:00 +29°C° 0.8 mm 3 mps 711 mmHg 83%
    18:00 +28°C° 0.8 mm 3 mps 712 mmHg 85%
    19:00 +27°C° 0.8 mm 3 mps 713 mmHg 87%
    20:00 +26°C° 0.8 mm 3 mps 713 mmHg 88%
    21:00 +26°C° 0.7 mm 3 mps 714 mmHg 88%
    22:00 +26°C° 0.7 mm 3 mps 714 mmHg 88%
    23:00 +26°C° 0.7 mm 3 mps 714 mmHg 88%
    Show more